This is the latest recevied weather packets stored in our database for station/object N3MFL. If no packets are shown the sender has not sent any weather packets the latest 10 day(s).
| Time | Temp. | Humidity | Pressure | Rain* | Wind** | Luminosity | Snow |
|---|---|---|---|---|---|---|---|
| 1778007472 | 20.56° C | 60% | 1010.3 hPa | 0 mm | - | 532 W/m² | - |
| 1778007168 | 20.56° C | 59% | 1010.3 hPa | 0 mm | - | 420 W/m² | - |
| 1778006864 | 20.56° C | 60% | 1010.4 hPa | 0 mm | - | 384 W/m² | - |
| 1778006562 | 20° C | 60% | 1010.5 hPa | 0 mm | - | 166 W/m² | - |
| 1778006258 | 20.56° C | 59% | 1010.4 hPa | 0 mm | - | 198 W/m² | - |
| 1778005956 | 20.56° C | 59% | 1010.4 hPa | 0 mm | - | 267 W/m² | - |
| 1778005652 | 21.11° C | 57% | 1010.5 hPa | 0 mm | - | 230 W/m² | - |
| 1778005349 | 21.67° C | 58% | 1010.6 hPa | 0 mm | - | 198 W/m² | - |
| 1778005045 | 21.67° C | 57% | 1010.6 hPa | 0 mm | - | 285 W/m² | - |
| 1778004743 | 22.22° C | 56% | 1010.7 hPa | 0 mm | - | 189 W/m² | - |
| 1778004440 | 21.67° C | 57% | 1010.6 hPa | 0 mm | - | 444 W/m² | - |
| 1778004136 | 21.67° C | 57% | 1010.4 hPa | 0 mm | - | 105 W/m² | - |
| 1778003833 | 21.67° C | 58% | 1010.7 hPa | 0 mm | - | 172 W/m² | - |
| 1778003529 | 21.11° C | 57% | 1010.8 hPa | 0 mm | - | 270 W/m² | - |
| 1778003226 | 21.11° C | 57% | 1011 hPa | 0 mm | - | 386 W/m² | - |
| 1778002922 | 20.56° C | 57% | 1011.4 hPa | 0 mm | - | 418 W/m² | - |
| 1778002619 | 21.67° C | 56% | 1011.2 hPa | 0 mm | - | 153 W/m² | - |
| 1778002315 | 21.11° C | 58% | 1011.1 hPa | 0 mm | - | 528 W/m² | - |
| 1778002013 | 21.11° C | 57% | 1011.1 hPa | 0 mm | - | 443 W/m² | - |
| 1778001710 | 21.11° C | 59% | 1011.2 hPa | 0 mm | - | 276 W/m² | - |
| 1778001409 | 21.11° C | 58% | 1011.2 hPa | 0 mm | - | 222 W/m² | - |
| 1778001107 | 21.67° C | 58% | 1011.2 hPa | 0 mm | - | 269 W/m² | - |
| 1778000804 | 20.56° C | 61% | 1011.1 hPa | 0 mm | - | 290 W/m² | - |
| 1778000501 | 20.56° C | 58% | 1011.1 hPa | 0 mm | - | 243 W/m² | - |
| 1778000200 | 21.11° C | 58% | 1011.2 hPa | 0 mm | - | 357 W/m² | - |
* Rain latest hour (hover to see other rain measurements)
** Current wind speed in m/s (hover to see current wind gust speed)